EW8832 Weather Reports


Display with metric or nautical units.
time (UTC)temp
F
wind
direction
speed
MPH
gust
MPH
rain 1hr
in
rain 24hr
in
rain mn
in
humidity
%
barometer
mb
20260503054539 43 338 0.0 0.0 0.00 0.00 0.00 85 1019.2
20260503053031 44 338 0.0 2.0 0.00 0.00 0.00 82 1019.2
20260503051531 44 338 0.0 0.0 0.00 0.00 0.00 81 1019.1
20260503050030 45 338 0.0 0.0 0.00 0.00 0.00 79 1019.0
20260503044536 46 338 0.0 0.0 0.00 0.00 0.00 79 1018.9
20260503043032 46 338 0.0 0.0 0.00 0.00 0.00 76 1018.9
20260503041531 47 338 0.0 0.0 0.00 0.00 0.00 73 1019.0
20260503040031 47 338 0.0 0.0 0.00 0.00 0.00 70 1018.9
20260503034530 48 338 0.0 0.0 0.00 0.00 0.00 67 1019.0
20260503033030 50 338 0.0 2.0 0.00 0.00 0.00 64 1019.0
20260503031527 52 338 0.0 1.0 0.00 0.00 0.00 59 1018.8
20260503030027 54 338 0.0 1.0 0.00 0.00 0.00 54 1018.7
20260503024526 54 338 1.0 3.0 0.00 0.00 0.00 51 1018.5
20260503023027 53 339 1.0 3.0 0.00 0.00 0.00 54 1018.5
20260503021526 54 339 0.0 2.0 0.00 0.00 0.00 55 1018.3
20260503020025 54 339 1.0 2.0 0.00 0.00 0.00 55 1018.2
20260503014525 55 340 1.0 2.0 0.00 0.00 0.00 54 1018.0
20260503013031 56 340 1.0 3.0 0.00 0.00 0.00 54 1017.9
20260503011531 58 340 1.0 3.0 0.00 0.00 0.00 50 1017.8
20260503010024 59 340 2.0 4.0 0.00 0.00 0.00 47 1017.7
20260503004523 61 302 2.0 5.0 0.00 0.00 0.00 44 1017.7
20260503003023 62 319 4.0 10.0 0.00 0.00 0.00 41 1017.7
20260503001523 63 297 4.0 9.0 0.00 0.00 0.00 39 1017.7
20260503000021 63 301 4.0 10.0 0.00 0.00 0.00 39 1017.7
20260502234521 64 311 4.0 11.0 0.00 0.00 0.00 38 1017.7
20260502233022 64 324 3.0 11.0 0.00 0.00 0.00 39 1017.7
20260502231521 65 322 5.0 14.0 0.00 0.00 0.00 37 1017.8
20260502230024 65 313 4.0 13.0 0.00 0.00 0.00 39 1017.8
20260502224520 64 300 7.0 14.0 0.00 0.00 0.00 38 1017.7
20260502223020 65 294 8.0 12.0 0.00 0.00 0.00 38 1017.7
20260502221519 65 313 4.0 13.0 0.00 0.00 0.00 37 1017.7
20260502220018 65 320 7.0 13.0 0.00 0.00 0.00 36 1017.8
20260502214531 65 316 7.0 18.0 0.00 0.00 0.00 38 1017.9
20260502213019 65 323 7.0 14.0 0.00 0.00 0.00 37 1018.0
20260502211525 66 316 4.0 11.0 0.00 0.00 0.00 38 1018.1
20260502210026 65 298 4.0 14.0 0.00 0.00 0.00 39 1018.2
20260502204518 65 332 3.0 17.0 0.00 0.00 0.00 39 1018.3
20260502203017 65 311 10.0 16.0 0.00 0.00 0.00 39 1018.5
20260502201519 65 289 7.0 13.0 0.00 0.00 0.00 39 1018.5
20260502200015 65 341 5.0 18.0 0.00 0.00 0.00 40 1018.7
20260502194514 65 302 6.0 15.0 0.00 0.00 0.00 41 1018.7
20260502193014 65 297 7.0 15.0 0.00 0.00 0.00 42 1018.7
20260502191513 64 326 11.0 19.0 0.00 0.00 0.00 39 1018.8
20260502190020 65 284 8.0 17.0 0.00 0.00 0.00 41 1018.8
20260502184510 64 294 10.0 17.0 0.00 0.00 0.00 40 1018.8
20260502183009 64 321 11.0 17.0 0.00 0.00 0.00 39 1019.0
20260502181508 64 9 5.0 14.0 0.00 0.00 0.00 42 1019.1
20260502161556 61 302 5.0 13.0 0.00 0.00 0.00 44 1019.9
20260502160105 60 19 5.0 11.0 0.00 0.00 0.00 43 1019.8
20260502151551 59 37 6.0 12.0 0.00 0.00 0.00 45 1019.6
20260502121510 46 355 0.0 2.0 0.00 0.00 0.00 89 1018.7
20260502114506 45 326 1.0 3.0 0.00 0.00 0.00 91 1018.5
20260502111503 44 24 0.0 1.0 0.00 0.00 0.00 92 1018.1
20260502110005 44 24 0.0 2.0 0.00 0.00 0.00 91 1018.0
20260502104600 44 24 0.0 4.0 0.00 0.00 0.00 92 1017.9
20260502101615 42 13 0.0 0.0 0.00 0.00 0.00 91 1017.6
20260502100110 43 13 0.0 0.0 0.00 0.00 0.00 90 1017.5
20260502070040 44 13 0.0 0.0 0.00 0.00 0.00 84 1017.1
20260502064600 45 13 0.0 0.0 0.00 0.00 0.00 85 1017.0